Regional Weather Roundup
Issued by NWS Albany, NY

Home | Current Version | Previous Version | Text Only | Print | Product List | Glossary On
Versions: 1 2 3 4 5 6 7 8 9 10 11 12 13 14 15 16 17 18 19 20 21 22 23 24 25 26 27 28 29 30 31 32 33 34 35 36 37 38 39 40 41 42 43 44 45 46 47 48 49 50
000
ASUS41 KALY 311810
RWRALY

NEW YORK STATE HOURLY WEATHER ROUNDUP
NATIONAL WEATHER SERVICE ALBANY NY
100 PM EST SAT JAN 31 2015

NOTE: "FAIR" INDICATES FEW OR NO CLOUDS BELOW 12,000 FEET WITH NO
SIGNIFICANT WEATHER AND/OR NO OBSTRUCTIONS TO VISIBILITY.

NYZ032-033-038>043-046>054-057>066-NYZ062>081-311900-
EAST


CITY           SKY/WX    TMP DP  RH WIND       PRES   REMARKS
ALBANY         SUNNY     12  -9  38 NW17      30.14F WCI  -5
GLENS FALLS    SUNNY     15  -8  35 N9        30.11F WCI   3
POUGHKEEPSIE   SUNNY     22  -4  32 N13       30.09F WCI  10
MONTGOMERY     SUNNY     20  -4  34 NW22G32   30.09F WCI   3
WHITE PLAINS   SUNNY     20   0  41 NW22G30   30.03F WCI   3
ISLIP          SUNNY     22   0  38 NW21G30   30.02F WCI   6
NEW YORK CITY  SUNNY     23   3  42 NW23G32   30.10F WCI   7
CENTRAL PARK   SUNNY     23  -3  32 VRB6G23   30.12F WCI  16
$$

NYZ005>009-017-018-044>046-055-056-311900-
CENTRAL


CITY           SKY/WX    TMP DP  RH WIND       PRES   REMARKS
FULTON         MIX PCPN  11   2  67 NW8       30.27F WCI  -1
SYRACUSE       PTSUNNY   11   2  67 W7        30.26F WCI   0
ROME           SUNNY      9  -6  50 W17G24    30.26F WCI  -9
ELMIRA         CLOUDY    19   7  59 W13G22    30.22F WCI   6
BINGHAMTON     CLOUDY    12   3  67 NW15G22   30.12F WCI  -4
MONTICELLO     SUNNY     12  -2  52 NW18G30   30.06F WCI  -5
$$

NYZ026>034-041>043-311900-
NORTH


CITY           SKY/WX    TMP DP  RH WIND       PRES   REMARKS
WATERTOWN      CLOUDY     6 -10  47 SW3       30.29F
FORT DRUM      NOT AVBL
MASSENA        SUNNY      2 -16  42 W10       30.26F WCI -14
SARANAC LAKE   SUNNY      3 -12  49 VRB7      30.03F WCI  -9
PLATTSBURGH    MIX PCPN  11 -13  33 NW10G18   30.16F WCI  -3
$$

NYZ001>004-010>016-019>021-311900-
WEST


CITY           SKY/WX    TMP DP  RH WIND       PRES   REMARKS
NIAGARA FALLS  FLURRIES  20  13  74 SW14      30.23F WCI   7
BUFFALO        FLURRIES  19  12  74 SW14      30.24F WCI   6
DUNKIRK        FAIR      22   9  57 W14G20    30.26F WCI   9
JAMESTOWN      MOSUNNY   18   9  68 S12       30.18F WCI   5
WELLSVILLE     MOSUNNY   16   4  59 W12       30.13F WCI   3
ROCHESTER      PTSUNNY   17   8  67 SW5       30.26F WCI  10
PENN YAN       CLOUDY    16   6  65 NW5       30.23F WCI   9
$$

             KEY
       WCI = WIND CHILL INDEX
       VSB = VISIBILITY
       HX  = HEAT INDEX
$$



USA.gov is the U.S. government's official web portal to all federal, state and local government web resources and services.